Weather History for KCEY - August, 2014

Change the Weather History Date:

Thursday, August 28, 2014

  Actual Average (KPAH) Record (KPAH)
Temperature  
Mean Temperature 80 °F 76 °F  
Max Temperature 91 °F 88 °F 99 °F (2007)
Min Temperature 69 °F 64 °F 48 °F (1967)
Degree Days  
Heating Degree Days 0 0  
Month to date heating degree days 0  
Since 1 June heating degree days 4  
Since 1 July heating degree days 0  
Cooling Degree Days 15 11  
Month to date cooling degree days 354  
Year to date cooling degree days 1277  
Since 1 June cooling degree days 1105  
Growing Degree Days 30 (Base 50)    
Moisture  
Dew Point 72 °F    
Average Humidity 86    
Maximum Humidity 100    
Minimum Humidity 52    
Precipitation  
Precipitation 0.17 in 0.09 in 1.55 in (1951)
Month to date precipitation 2.50  
Year to date precipitation 32.22  
Snow  
Snow 0.00 in 0.00 in 0.00 in (2002)
Month to date snowfall 0.0  
Since 1 June snowfall 0.0  
Since 1 July snowfall 0.0  
Snow Depth -    
Sea Level Pressure  
Sea Level Pressure 30.02 in    
Wind  
Wind Speed 2 mph (NE)    
Max Wind Speed 13 mph    
Max Gust Speed 17 mph    
Visibility 7 miles    
Events      
T = Trace of Precipitation, MM = Missing Value Source: NWS Daily Summary

Daily Weather History Graph

Daily Weather History Graph

Search for Another Location

Airport or City:

Trip Planner

Search our weather history database for the weather conditions in past years. The results will help you decide how hot, cold, wet, or windy it might be!

Date:

Astronomy

Aug. 28, 2014 Rise Set
Actual Time 6:21 AM CDT 7:27 PM CDT
Civil Twilight 5:54 AM CDT 7:53 PM CDT
Nautical Twilight 5:23 AM CDT 8:25 PM CDT
Astronomical Twilight 4:50 AM CDT 8:58 PM CDT
Moon 9:07 AM CDT 8:57 PM CDT
Length of Visible Light 13h 59m
Length of Day
13h 05m
Waxing Crescent, 9% of the Moon is Illuminated
Aug 28
Waxing Crescent
Sep 2
First Quarter
Sep 8
Full
Sep 15
Last Quarter
Sep 24
New

Hourly Weather History & Observations

Time (CDT) Temp. Heat Index Dew Point Humidity Pressure Visibility Wind Dir Wind Speed Gust Speed Precip Events Conditions
12:15 AM 73.4 °F - 71.6 °F 94% 30.04 in 8.0 mi Calm Calm - N/A   Unknown
12:35 AM 73.4 °F - 69.8 °F 88% 30.04 in 10.0 mi Calm Calm - N/A   Unknown
12:55 AM 73.4 °F - 71.6 °F 94% 30.04 in 10.0 mi Calm Calm - N/A   Partly Cloudy
1:15 AM 73.4 °F - 71.6 °F 94% 30.04 in 8.0 mi Calm Calm - N/A   Partly Cloudy
1:35 AM 73.4 °F - 69.8 °F 88% 30.04 in 7.0 mi NNE 4.6 mph - N/A   Clear
1:55 AM 73.4 °F - 69.8 °F 88% 30.04 in 5.0 mi Calm Calm - N/A   Scattered Clouds
2:15 AM 73.4 °F - 69.8 °F 88% 30.03 in 6.0 mi Calm Calm - N/A   Mostly Cloudy
2:35 AM 73.4 °F - 69.8 °F 88% 30.03 in 6.0 mi WNW 3.5 mph - N/A   Partly Cloudy
2:55 AM 71.6 °F - 69.8 °F 94% 30.03 in 5.0 mi NW 4.6 mph - N/A   Partly Cloudy
3:15 AM 73.4 °F - 69.8 °F 88% 30.03 in 8.0 mi Calm Calm - N/A   Unknown
3:35 AM 73.4 °F - 69.8 °F 88% 30.03 in 8.0 mi Calm Calm - N/A   Unknown
3:55 AM 71.6 °F - 69.8 °F 94% 30.03 in 6.0 mi Calm Calm - N/A   Unknown
4:15 AM 71.6 °F - 69.8 °F 94% 30.03 in 6.0 mi Calm Calm - N/A   Unknown
4:35 AM 71.6 °F - 69.8 °F 94% 30.03 in 5.0 mi Calm Calm - N/A   Unknown
5:15 AM 71.6 °F - 69.8 °F 94% 30.03 in 7.0 mi Calm Calm - N/A   Clear
5:35 AM 71.6 °F - 69.8 °F 94% 30.03 in 6.0 mi Calm Calm - N/A   Partly Cloudy
5:55 AM 71.6 °F - 69.8 °F 94% 30.04 in 5.0 mi Calm Calm - N/A   Clear
6:15 AM 69.8 °F - 69.8 °F 100% 30.04 in 3.0 mi Calm Calm - N/A   Clear
6:35 AM 69.8 °F - 69.8 °F 100% 30.04 in 3.0 mi Calm Calm - N/A   Clear
6:55 AM 69.8 °F - 69.8 °F 100% 30.04 in 3.0 mi Calm Calm - N/A   Clear
7:15 AM 71.6 °F - 71.6 °F 100% 30.05 in 4.0 mi ESE 3.5 mph - N/A   Clear
7:35 AM 73.4 °F - 73.4 °F 100% 30.05 in 4.0 mi Calm Calm - N/A   Clear
7:55 AM 75.2 °F - 73.4 °F 94% 30.05 in 6.0 mi Calm Calm - N/A   Clear
8:15 AM 77.0 °F - 73.4 °F 89% 30.05 in 8.0 mi East 4.6 mph - N/A   Clear
8:35 AM 78.8 °F - 73.4 °F 83% 30.05 in 8.0 mi East 5.8 mph - N/A   Clear
8:55 AM 80.6 °F 85.4 °F 73.4 °F 79% 30.05 in 8.0 mi ESE 3.5 mph - N/A   Clear
9:15 AM 82.4 °F 88.2 °F 73.4 °F 74% 30.05 in 7.0 mi East 3.5 mph - N/A   Clear
9:35 AM 84.2 °F 90.9 °F 73.4 °F 70% 30.05 in 8.0 mi Calm Calm - N/A   Clear
9:55 AM 84.2 °F 90.9 °F 73.4 °F 70% 30.05 in 9.0 mi East 3.5 mph - N/A   Clear
10:15 AM 86.0 °F 93.4 °F 73.4 °F 66% 30.05 in 9.0 mi Calm Calm - N/A   Clear
10:35 AM 87.8 °F 93.8 °F 71.6 °F 58% 30.04 in 10.0 mi Calm Calm - N/A   Clear
10:55 AM 89.6 °F 96.2 °F 71.6 °F 55% 30.04 in 10.0 mi SE 4.6 mph - N/A   Clear
11:15 AM 89.6 °F 96.2 °F 71.6 °F 55% 30.04 in 10.0 mi ESE 5.8 mph - N/A   Clear
11:35 AM 89.6 °F 96.2 °F 71.6 °F 55% 30.03 in 10.0 mi East 6.9 mph - N/A   Partly Cloudy
11:55 AM 89.6 °F 96.2 °F 71.6 °F 55% 30.03 in 10.0 mi ESE 8.1 mph - N/A   Partly Cloudy
12:15 PM 91.4 °F 98.4 °F 71.6 °F 52% 30.02 in 10.0 mi SSE 6.9 mph - N/A   Scattered Clouds
12:35 PM 89.6 °F 96.2 °F 71.6 °F 55% 30.02 in 10.0 mi SSW 3.5 mph - N/A   Partly Cloudy
12:55 PM 89.6 °F 94.7 °F 69.8 °F 52% 30.01 in 10.0 mi NW 3.5 mph - N/A   Scattered Clouds
1:15 PM 86.0 °F 89.4 °F 68.0 °F 55% 30.01 in 10.0 mi NNW 11.5 mph 16.1 mph N/A   Overcast
1:35 PM 82.4 °F 86.3 °F 69.8 °F 66% 30.02 in 10.0 mi NW 12.7 mph 17.3 mph N/A   Overcast
1:55 PM 80.6 °F 84.6 °F 71.6 °F 74% 30.02 in 9.0 mi Calm Calm - N/A   Overcast
2:15 PM 77.0 °F - 73.4 °F 89% 30.02 in 1.0 mi South 5.8 mph - 0.07 in   Overcast
2:35 PM 75.2 °F - 75.2 °F 100% 30.00 in 3.0 mi Calm Calm - 0.11 in   Clear
2:55 PM 75.2 °F - 75.2 °F 100% 30.00 in 2.5 mi SSW 5.8 mph - 0.13 in   Partly Cloudy
3:15 PM 75.2 °F - 73.4 °F 94% 29.99 in 2.5 mi ESE 3.5 mph - 0.01 in   Scattered Clouds
3:35 PM 75.2 °F - 73.4 °F 94% 29.98 in 4.0 mi ESE 6.9 mph - 0.04 in   Partly Cloudy
3:55 PM 75.2 °F - 73.4 °F 94% 29.98 in 5.0 mi East 5.8 mph - 0.04 in   Clear
4:15 PM 75.2 °F - 73.4 °F 94% 29.98 in 8.0 mi SE 4.6 mph - N/A   Clear
4:35 PM 77.0 °F - 75.2 °F 94% 29.98 in 8.0 mi Calm Calm - N/A   Clear
4:55 PM 78.8 °F - 75.2 °F 89% 29.98 in 7.0 mi NW 6.9 mph - N/A   Clear
5:15 PM 77.0 °F - 75.2 °F 94% 29.98 in 5.0 mi North 3.5 mph - N/A   Clear
5:35 PM 77.0 °F - 75.2 °F 94% 29.99 in 4.0 mi NNW 8.1 mph - N/A   Clear
5:55 PM 77.0 °F - 75.2 °F 94% 29.99 in 5.0 mi NW 5.8 mph - N/A   Clear
6:15 PM 77.0 °F - 73.4 °F 89% 29.99 in 6.0 mi NW 4.6 mph - N/A   Clear
6:35 PM 77.0 °F - 75.2 °F 94% 29.99 in 5.0 mi NNW 4.6 mph - N/A   Clear
6:55 PM 77.0 °F - 73.4 °F 89% 29.99 in 6.0 mi NNE 3.5 mph - N/A   Clear
7:15 PM 77.0 °F - 73.4 °F 89% 29.98 in 5.0 mi NNE 3.5 mph - N/A   Clear
7:35 PM 75.2 °F - 73.4 °F 94% 29.98 in 5.0 mi NNE 5.8 mph - N/A   Clear
7:55 PM 75.2 °F - 73.4 °F 94% 29.99 in 7.0 mi NNE 3.5 mph - N/A   Clear
8:15 PM 75.2 °F - 73.4 °F 94% 30.00 in 7.0 mi Calm Calm - N/A   Unknown
8:35 PM 75.2 °F - 73.4 °F 94% 30.00 in 8.0 mi NNE 3.5 mph - N/A   Clear
8:55 PM 75.2 °F - 71.6 °F 89% 30.00 in 7.0 mi NE 4.6 mph - N/A   Clear
9:15 PM 73.4 °F - 71.6 °F 94% 30.00 in 7.0 mi NE 5.8 mph - N/A   Clear
9:35 PM 73.4 °F - 71.6 °F 94% 30.00 in 7.0 mi North 3.5 mph - N/A   Unknown
9:55 PM 73.4 °F - 71.6 °F 94% 30.01 in 8.0 mi Calm Calm - N/A   Clear
10:15 PM 73.4 °F - 71.6 °F 94% 30.00 in 8.0 mi Calm Calm - N/A   Clear
10:35 PM 73.4 °F - 71.6 °F 94% 30.00 in 6.0 mi ENE 3.5 mph - N/A   Clear
10:55 PM 73.4 °F - 71.6 °F 94% 30.00 in 5.0 mi East 3.5 mph - N/A   Clear
11:15 PM 71.6 °F - 71.6 °F 100% 30.00 in 5.0 mi Calm Calm - N/A   Clear
11:35 PM 71.6 °F - 71.6 °F 100% 30.00 in 4.0 mi Calm Calm - N/A   Clear
11:55 PM 71.6 °F - 71.6 °F 100% 30.00 in 3.0 mi Calm Calm - N/A   Unknown